Weather History for KCNK - November, 2014

Change the Weather History Date:

Thursday, November 27, 2014

  Actual Average Record
Temperature  
Mean Temperature 28 °F 36 °F  
Max Temperature 42 °F 46 °F 69 °F (1933)
Min Temperature 14 °F 26 °F -15 °F (1887)
Degree Days  
Heating Degree Days 37 29  
Month to date heating degree days 766 608  
Since 1 July heating degree days 1097 999  
Cooling Degree Days 0 0  
Month to date cooling degree days 0 0  
Year to date cooling degree days 1368 1348  
Moisture  
Dew Point 16 °F    
Average Humidity 65    
Maximum Humidity 96    
Minimum Humidity 33    
Precipitation  
Precipitation 0.00 in 0.03 in 0.91 in (1983)
Month to date precipitation 0.11 1.01  
Year to date precipitation 26.46 26.94  
Snow  
Snow 0.00 in 0.10 in 7.30 in (1983)
Month to date snowfall 1.1 2.1  
Year to date snowfall 18.0 16.0  
Since 1 July snowfall 1.1 2.3  
Snow Depth 0.00 in    
Sea Level Pressure  
Sea Level Pressure 30.38 in    
Wind  
Wind Speed 9 mph (SSE)    
Max Wind Speed 20 mph    
Max Gust Speed 24 mph    
Visibility 10 miles    
Events      
T = Trace of Precipitation, MM = Missing Value Source: NWS Daily Summary

Daily Weather History Graph

Daily Weather History Graph

Search for Another Location

Airport or City:

Trip Planner

Search our weather history database for the weather conditions in past years. The results will help you decide how hot, cold, wet, or windy it might be!

Date:

Astronomy

Nov. 27, 2014 Rise Set
Actual Time 7:27 AM CST 5:08 PM CST
Civil Twilight 6:58 AM CST 5:37 PM CST
Nautical Twilight 6:25 AM CST 6:11 PM CST
Astronomical Twilight 5:52 AM CST 6:43 PM CST
Moon 11:44 AM CST (11/27) 10:49 PM CST (11/27)
Length of Visible Light 10h 39m
Length of Day
9h 40m
Waxing Crescent, 31% of the Moon is Illuminated
Nov 27
Waxing Crescent
Nov 29
First Quarter
Dec 6
Full
Dec 14
Last Quarter
Dec 21
New

Hourly Weather History & Observations

Time (CST) Temp. Windchill Dew Point Humidity Pressure Visibility Wind Dir Wind Speed Gust Speed Precip Events Conditions
12:55 AM 21.0 °F 14.6 °F 16.0 °F 81% 30.51 in 10.0 mi NNE 4.6 mph - N/A   Clear
1:55 AM 19.9 °F 13.4 °F 15.1 °F 81% 30.52 in 10.0 mi NE 4.6 mph - N/A   Clear
2:55 AM 18.0 °F - 14.0 °F 84% 30.51 in 10.0 mi Calm Calm - N/A   Clear
3:55 AM 19.0 °F - 14.0 °F 81% 30.52 in 10.0 mi Calm Calm - N/A   Scattered Clouds
4:55 AM 16.0 °F 10.4 °F 12.9 °F 88% 30.53 in 10.0 mi WSW 3.5 mph - N/A   Clear
5:55 AM 16.0 °F 8.8 °F 12.0 °F 84% 30.54 in 10.0 mi SW 4.6 mph - N/A   Clear
6:55 AM 15.1 °F - 12.0 °F 88% 30.56 in 10.0 mi Calm Calm - N/A   Clear
7:55 AM 14.0 °F 3.9 °F 12.0 °F 92% 30.54 in 10.0 mi South 6.9 mph - N/A   Partly Cloudy
8:55 AM 21.0 °F 14.6 °F 15.1 °F 78% 30.55 in 10.0 mi Variable 4.6 mph - N/A   Clear
9:55 AM 24.1 °F 16.0 °F 15.1 °F 69% 30.56 in 10.0 mi SE 6.9 mph - N/A   Clear
10:55 AM 27.0 °F 20.5 °F 15.1 °F 61% 30.53 in 10.0 mi Variable 5.8 mph - N/A   Clear
11:55 AM 33.1 °F 24.9 °F 17.1 °F 52% 30.46 in 10.0 mi SSE 10.4 mph - N/A   Clear
12:55 PM 37.0 °F 28.5 °F 17.1 °F 44% 30.40 in 10.0 mi SSE 13.8 mph - N/A   Clear
1:55 PM 39.9 °F 32.1 °F 15.1 °F 36% 30.35 in 10.0 mi SSE 13.8 mph - N/A   Clear
2:55 PM 41.0 °F 32.5 °F 16.0 °F 36% 30.32 in 10.0 mi SSE 17.3 mph 21.9 mph N/A   Clear
3:55 PM 42.1 °F 34.5 °F 16.0 °F 35% 30.30 in 10.0 mi South 15.0 mph - N/A   Clear
4:55 PM 39.0 °F 31.8 °F 17.1 °F 41% 30.27 in 10.0 mi SSE 11.5 mph - N/A   Clear
5:55 PM 35.1 °F 27.9 °F 16.0 °F 46% 30.28 in 10.0 mi SSE 9.2 mph - N/A   Clear
6:55 PM 36.0 °F 27.1 °F 17.1 °F 46% 30.25 in 10.0 mi SSE 13.8 mph - N/A   Clear
7:55 PM 36.0 °F 26.7 °F 17.1 °F 46% 30.21 in 10.0 mi SSE 15.0 mph - N/A   Clear
8:55 PM 36.0 °F 26.7 °F 18.0 °F 48% 30.19 in 10.0 mi SSE 15.0 mph - N/A   Clear
9:55 PM 36.0 °F 26.3 °F 18.0 °F 48% 30.15 in 10.0 mi SSE 16.1 mph - N/A   Clear
10:55 PM 35.1 °F 25.5 °F 19.0 °F 52% 30.12 in 10.0 mi SSE 15.0 mph 23.0 mph N/A   Clear
11:55 PM 34.0 °F 25.5 °F 19.0 °F 54% 30.08 in 10.0 mi SSE 11.5 mph - N/A   Clear